Flag for U.S.A. Weather past 2 weeks in Norfolk, Virginia, U.S.A.

Now
78 °F

Clear.


Feels Like: 80 °F
Forecast: 65 / 75 °F
Wind: 8 mph from Southwest

Location: Norfolk Naval Air Station

Current Time: Sep 21, 2014 at 11:02:40 PM

Latest Report: Sep 21, 2014 at 9:59 PM


Visibility: 10 mi

Pressure: 29.78 "Hg

Humidity: 66%

Dew point: 66 °F

Location of NorfolkLocation

Historic Weather in Norfolk — Graph

°F

Norfolk temperature yesterday

Maximum temperature yesterday: 78 °F (at 2:59 PM)
Minimum temperature yesterday: 69 °F (at 2:59 AM)
Average temperature yesterday: 73 °F

Past Weeks' High & Low Weather Summary

 TemperatureHumidityPressure
High87 °F (Sep 11, 1:59 PM)97% (Sep 9, 3:59 AM)30.29 "Hg (Sep 9, 3:59 AM)
Low63 °F (Sep 18, 3:59 AM)45% (Sep 18, 2:59 PM)29.72 "Hg (Sep 21, 3:59 PM)
Average74 °F73%30.07 "Hg
* Reported Sep 6 9:59 PM — Sep 21 9:59 PM, Norfolk, Weather by CustomWeather, © 2014

Note: Actual official high and low records may vary slightly from our data, if they occured in-between our weather recording intervals... More about our weather records

Advertising

Norfolk weather history for previous 24 hours

 ConditionsComfort  
Time TempWeatherWind HumidityBarometerVisibility
9:59 PM
Sep 21
78 °FClear.8 mph66%29.78 "Hg10 mi
8:59 PM77 °FClear.8 mph66%29.77 "Hg10 mi
7:59 PM78 °FPassing clouds.7 mph62%29.75 "Hg10 mi
6:59 PM79 °FPassing clouds.7 mph56%29.74 "Hg10 mi
5:59 PM81 °FScattered clouds.3 mph53%29.74 "Hg10 mi
4:59 PM81 °FScattered clouds.5 mph54%29.74 "Hg10 mi
3:59 PM80 °FBroken clouds.3 mph62%29.72 "Hg10 mi
2:59 PM79 °FPartly sunny.7 mph69%29.74 "Hg10 mi
1:59 PM79 °FBroken clouds.8 mph69%29.77 "Hg10 mi
12:59 PM77 °FMostly cloudy.12 mph74%29.79 "Hg10 mi
11:59 AM74 °FMostly cloudy.12 mph85%29.81 "Hg10 mi
10:59 AM74 °FMostly cloudy.12 mph85%29.82 "Hg10 mi
9:59 AM73 °FMostly cloudy.14 mph90%29.82 "Hg10 mi
8:59 AM73 °FLight rain. Mostly cloudy.15 mph90%29.83 "Hg8 mi
7:59 AM73 °FLight rain. Mostly cloudy.14 mph88%29.83 "Hg9 mi
6:59 AM73 °FMostly cloudy.20 mph88%29.85 "Hg10 mi
5:59 AM73 °FLight rain. Mostly cloudy.21 mph90%29.84 "Hg9 mi
4:59 AM74 °FOvercast.17 mph85%29.86 "Hg10 mi
3:59 AM74 °FMostly cloudy.16 mph88%29.88 "Hg10 mi
2:59 AM74 °FMostly cloudy.12 mph88%29.92 "Hg10 mi
1:59 AM74 °FOvercast.13 mph88%29.95 "Hg10 mi
12:59 AM74 °FPartly cloudy.8 mph88%29.97 "Hg10 mi
11:59 PM
Sep 20
73 °FOvercast.5 mph90%29.99 "Hg10 mi
Weather by CustomWeather, © 2014

See weather overviewHow to use our weather pages